Location: Baix
(44.7118°N, 4.7648°E)
Time: 06:31:45
(UTC+00:00)

deb Explorer IX - Visible Passes

Search period start: 27 November 2020 00:00
Search period end: 07 December 2020 00:00
Orbit: 538 x 1104 km, 38.8° (Epoch: 26 November)

Date Brightness Start Highest point End Pass type
(mag) Time Alt. Az. Time Alt. Az. Time Alt. Az.
27 Nov ? 17:15:36 10° SW 17:20:41 33° SSE 17:24:08 15° ESE visible
27 Nov ? 19:02:13 10° WSW 19:05:25 31° SW 19:05:25 31° SW visible
28 Nov ? 16:52:06 10° SW 16:57:23 34° SSE 17:01:58 10° ESE visible
28 Nov ? 18:38:46 10° WSW 18:43:25 42° SSW 18:43:25 42° SSW visible
29 Nov ? 16:28:34 10° SW 16:34:04 36° SSE 16:38:49 10° E visible
29 Nov ? 18:15:18 10° WSW 18:20:34 44° S 18:21:25 40° SSE visible
29 Nov ? 20:02:37 10° WSW 20:02:42 10° WSW 20:02:42 10° WSW visible
30 Nov ? 17:51:49 10° WSW 17:57:17 45° S 17:59:26 29° SE visible
30 Nov ? 19:39:10 10° W 19:40:44 17° WSW 19:40:44 17° WSW visible
01 Dec ? 17:28:17 10° WSW 17:33:58 46° S 17:37:30 18° ESE visible
01 Dec ? 19:15:42 10° W 19:18:47 25° SW 19:18:47 25° SW visible
02 Dec ? 17:04:46 10° WSW 17:10:39 47° S 17:15:36 10° ESE visible
02 Dec ? 18:52:13 10° W 18:56:53 30° SSW 18:56:53 30° SSW visible
03 Dec ? 16:41:13 10° WSW 16:47:17 48° S 16:52:29 10° ESE visible
03 Dec ? 18:28:42 10° W 18:33:42 31° SSW 18:35:04 27° S visible
04 Dec ? 18:05:10 10° W 18:10:21 31° SSW 18:13:19 18° SSE visible
05 Dec ? 17:41:37 10° W 17:47:01 32° SSW 17:51:43 10° SE visible
05 Dec ? 19:31:30 10° SW 19:32:44 11° SW 19:33:01 11° SW visible
06 Dec ? 17:18:03 10° W 17:23:39 33° SSW 17:28:31 10° SE visible
06 Dec ? 19:07:42 10° WSW 19:09:25 11° SW 19:11:03 10° SSW visible
